Theta_e
313 310 311 313 316 315 319 321 323 321 318 312 312 311 309 308 307 307 306 306 306 306 305 305 306 306 306 311 312 309 306 305 304 304 304 304 304 305 304 304 304 304 303 303
313 308 309 311 310 313 317 319 318 315 318 313 311 310 309 307 306 305 305 305 304 304 304 304 305 306 309 311 308 307 306 305 305 305 304 305 305 304 304 303 303 302 302 302
319 308 308 312 312 310 314 313 317 317 318 309 310 310 309 306 304 305 304 304 305 305 306 307 308 309 309 309 309 309 308 306 305 304 304 304 303 303 301 300 301 300 300 301
317 309 315 316 306 311 313 312 310 310 308 308 310 309 308 305 304 303 305 306 307 308 309 309 309 309 309 309 307 305 304 303 303 302 302 301 301 299 298 299 299 299 299 298
314 313 316 312 306 307 308 311 307 308 305 305 304 305 306 304 305 306 307 307 307 307 306 305 304 304 303 303 303 302 302 302 301 300 299 298 297 296 296 296 297 297 297 297
309 315 317 313 304 304 305 311 305 306 305 306 307 308 309 306 307 307 305 305 306 306 306 305 304 303 302 302 302 301 300 299 298 298 297 295 295 296 295 295 296 296 295 294
312 311 310 307 301 304 310 311 303 303 304 306 308 307 304 306 306 305 306 306 306 306 304 302 301 301 302 302 301 300 298 298 298 297 296 294 295 295 294 295 294 292 292 292
307 309 312 302 300 306 307 301 302 302 303 305 305 304 305 306 306 306 305 306 306 305 304 303 304 304 303 303 302 300 298 298 298 297 295 294 294 294 293 291 291 290 291 291
307 308 301 300 300 300 300 302 302 303 302 303 304 304 303 302 303 303 303 303 304 304 304 304 304 302 302 302 301 300 298 298 298 297 295 294 293 293 292 291 290 290 290 289
303 300 299 299 299 300 300 300 300 302 303 303 304 304 302 301 301 302 301 302 301 299 298 298 299 300 301 301 300 299 297 296 295 295 294 291 291 291 291 290 289 289 288 287
299 298 298 298 298 300 300 300 301 301 302 303 304 303 302 302 302 301 300 299 298 298 297 297 298 299 300 300 299 297 295 294 293 293 292 290 290 290 289 288 288 287 287 287
302 299 299 298 298 298 298 299 299 300 300 300 300 298 297 297 297 297 297 297 297 298 298 298 298 300 300 299 297 296 294 293 293 293 292 291 290 289 288 287 287 287 286 286
297 296 295 295 296 296 297 296 296 297 297 297 296 296 295 295 295 295 296 296 298 299 298 298 299 300 299 298 296 295 294 292 293 292 291 290 289 288 288 286 286 285 285 285
295 295 294 295 295 295 295 295 294 294 295 295 295 295 296 295 295 296 296 296 299 297 296 299 299 298 298 297 295 294 293 293 291 291 290 289 288 287 287 286 285 284 284 284
295 295 295 295 295 295 295 294 294 294 295 295 296 295 295 295 295 295 296 298 298 297 298 298 297 297 297 295 294 293 292 291 290 289 288 288 287 286 286 285 284 284 283 283
296 297 297 296 296 295 295 295 294 295 295 295 295 295 295 295 295 295 295 296 298 297 298 298 297 296 295 293 292 292 291 289 289 288 288 287 286 286 285 285 284 284 283 283
297 298 298 298 297 296 295 295 295 295 296 297 297 297 297 297 297 297 297 296 296 298 297 296 295 294 291 291 291 290 289 289 288 288 287 286 286 286 285 285 284 284 284 283
295 295 295 296 298 296 296 296 296 297 297 297 298 297 296 297 297 297 297 296 297 295 294 292 291 290 289 289 290 288 288 288 287 287 286 286 286 285 285 284 284 284 283 283
295 295 295 297 297 295 296 296 296 296 298 299 298 297 297 296 295 296 297 296 295 293 292 289 288 288 288 288 287 288 287 287 287 286 286 286 285 285 284 284 283 283 283 282
293 294 295 296 296 296 296 297 297 298 299 299 299 299 297 296 294 294 293 293 292 290 289 288 288 288 287 286 285 287 287 287 287 286 286 285 285 285 284 283 283 282 282 281
292 294 294 294 296 297 298 299 299 300 299 298 297 297 296 296 295 294 292 291 289 288 287 287 287 286 287 286 286 287 288 288 287 287 286 285 285 284 283 283 282 281 281 281
290 292 294 294 294 295 296 297 297 298 297 297 297 296 295 293 293 291 289 289 287 286 286 286 286 286 286 287 287 287 287 287 286 286 285 285 284 284 283 282 282 281 281 280
290 290 292 294 294 295 295 296 296 296 296 296 295 295 293 292 289 288 288 288 287 286 286 286 286 285 285 287 285 285 286 286 286 285 285 284 284 283 283 282 282 281 281 280
290 290 291 292 293 294 294 294 294 294 294 293 292 291 290 288 288 288 287 287 286 286 286 285 285 285 284 285 284 284 284 285 285 285 284 284 283 283 282 282 281 281 281 280
290 291 291 292 292 292 292 292 291 291 291 290 289 288 287 287 288 287 286 286 285 285 285 284 284 284 284 284 283 283 283 284 284 284 284 283 283 283 282 282 281 281 280 280
290 290 291 291 291 290 290 290 290 289 289 289 288 287 287 287 287 286 286 285 285 285 285 284 283 283 283 283 283 282 283 283 283 283 283 282 282 281 281 281 281 281 281 280
290 290 290 290 290 290 290 289 289 289 288 288 288 287 287 287 286 286 285 285 284 284 284 284 283 283 283 283 283 283 283 283 283 282 282 282 282 282 282 281 281 281 281 280
Wind_Speed
3 2 2 4 14 15 18 24 18 23 17 19 20 18 24 21 14 11 12 14 14 13 15 16 18 18 18 19 20 18 15 12 12 14 15 16 17 18 17 17 17 17 15 13
5 4 5 6 7 15 21 19 16 12 15 12 26 16 16 22 14 13 15 14 11 14 17 18 16 12 13 16 15 12 11 12 14 17 20 20 20 18 18 18 17 14 11 10
7 5 3 7 22 18 13 13 19 16 18 11 16 20 22 20 18 18 15 12 13 14 14 11 8 9 13 13 14 14 15 16 18 21 21 22 21 20 19 14 10 9 8 9
4 8 9 11 2 18 22 16 16 9 11 20 21 29 23 21 19 17 14 12 10 8 6 5 6 8 10 10 12 15 17 18 18 19 17 17 17 17 13 9 7 7 6 6
5 8 9 6 5 7 12 17 15 12 10 13 10 9 10 18 18 14 12 10 9 7 6 7 8 10 12 11 11 13 15 15 15 15 15 14 14 13 10 9 7 9 7 8
4 6 11 4 5 13 7 13 10 16 12 14 15 8 6 21 18 15 12 10 9 8 8 9 10 10 13 12 12 12 12 11 12 14 15 13 10 8 7 7 8 7 7 7
9 6 5 6 4 15 10 5 7 20 18 22 10 9 9 22 20 15 13 12 10 9 8 8 9 10 13 12 13 12 12 11 10 10 11 8 5 7 7 7 8 7 6 7
4 4 9 11 10 10 5 8 8 13 20 23 20 13 13 20 19 17 15 12 12 12 10 11 13 13 15 15 13 13 13 11 9 8 7 7 6 7 8 6 5 5 6 6
8 4 1 18 2 6 8 4 6 10 14 19 24 18 19 19 19 18 15 14 14 13 12 13 15 15 17 16 15 12 12 11 10 9 7 5 6 7 5 4 5 5 6 6
4 2 1 11 3 3 3 4 7 13 16 18 21 22 21 21 19 18 16 14 11 10 11 13 15 17 17 15 14 13 12 10 9 9 7 5 6 5 5 4 4 6 6 6
2 2 1 2 2 4 3 4 4 6 11 17 19 18 16 16 15 15 13 12 12 13 13 14 14 16 16 14 13 13 9 7 8 8 7 7 7 7 6 6 6 5 5 5
2 5 5 5 5 3 5 7 8 9 10 10 10 9 8 10 12 13 15 16 16 16 16 15 16 15 15 13 14 12 9 9 10 9 9 10 9 7 6 5 6 6 5 5
4 4 3 5 6 8 10 7 9 11 12 14 16 18 19 20 21 21 21 21 21 19 17 17 15 14 14 14 14 10 9 9 10 11 11 11 9 7 7 7 6 5 5 5
5 6 5 11 10 11 18 21 19 21 22 23 20 17 14 12 13 16 22 22 20 19 17 15 14 16 16 14 13 10 7 8 10 10 11 10 9 9 8 7 7 8 7 6
7 6 11 12 14 15 16 17 19 21 20 18 17 17 18 22 25 22 18 17 19 18 15 13 17 19 16 13 12 10 9 10 11 11 11 11 11 11 10 9 9 11 11 9
13 13 13 14 14 13 13 14 16 18 18 21 22 22 22 21 22 23 23 21 19 18 17 17 20 17 14 13 12 11 11 10 10 11 12 13 13 12 12 11 12 11 10 8
7 10 9 9 11 13 12 10 11 12 12 14 20 22 20 19 18 15 16 16 16 13 16 16 13 11 10 10 11 11 11 11 13 13 13 13 12 12 12 11 11 11 10 8
7 11 14 17 14 9 9 10 9 7 13 13 11 6 9 14 19 18 14 13 11 14 14 9 7 9 9 9 13 13 12 13 14 14 15 14 13 12 11 11 10 10 10 11
6 7 7 4 9 11 12 10 11 12 8 6 1 1 4 4 8 18 18 16 15 13 9 7 9 11 10 11 14 13 12 14 16 16 15 14 13 11 10 10 9 10 10 11
3 5 4 1 3 6 10 12 10 7 5 3 1 4 6 9 8 11 14 12 7 5 6 10 11 12 12 13 13 12 13 15 16 16 15 14 12 11 9 8 9 9 10 10
6 6 5 4 2 1 2 1 5 5 9 9 5 6 10 11 9 7 6 6 6 6 8 11 13 13 13 13 13 12 13 14 14 14 14 13 12 11 9 9 9 9 9 9
5 4 6 5 4 5 7 10 10 9 6 5 6 7 8 7 5 3 6 5 7 7 10 13 12 11 12 12 12 12 12 13 13 13 13 13 11 11 10 10 10 10 9 9
5 3 3 4 5 7 8 8 8 5 4 4 6 6 4 4 4 6 9 8 7 7 11 13 12 11 10 13 12 11 12 12 12 11 11 11 11 11 11 11 11 11 10 9
4 4 4 4 3 3 4 4 3 2 2 3 4 5 5 8 8 7 6 8 8 8 12 13 13 12 12 13 12 12 12 13 13 12 12 12 13 13 13 12 12 11 11 11
5 5 5 6 6 7 4 3 2 2 2 2 4 7 8 8 6 7 6 6 9 12 12 12 12 12 13 13 12 12 12 12 12 12 12 12 12 12 12 12 11 10 10 10
4 4 4 5 6 7 7 6 2 0 2 3 4 6 7 7 7 6 5 4 10 13 12 12 12 12 12 10 12 13 13 12 11 11 12 12 12 12 11 11 10 9 8 8
4 2 1 1 2 2 4 5 5 2 2 3 4 5 5 5 5 3 4 6 11 13 11 11 9 10 14 12 9 11 15 13 11 11 12 12 11 11 10 10 9 9 9 9
Wind_Direction
218 162 196 234 215 193 199 216 208 237 221 191 193 194 189 187 208 239 254 262 273 283 285 290 289 281 262 244 237 238 247 264 274 282 288 291 295 297 295 288 281 278 272 266
232 201 200 240 239 206 213 221 237 248 233 199 198 194 196 209 235 242 250 257 272 280 284 284 283 267 239 230 232 243 263 276 290 294 291 291 294 294 294 292 285 281 272 265
244 136 135 264 229 213 209 213 216 218 230 168 192 202 207 214 225 237 248 259 261 264 269 273 264 232 220 228 241 256 271 282 285 289 286 287 287 290 297 296 281 281 276 269
199 144 221 242 245 217 221 221 209 222 178 183 191 204 218 227 232 238 233 236 243 249 258 264 252 234 228 242 268 282 289 288 287 284 282 280 284 291 298 286 278 270 270 271
189 203 285 280 214 186 182 238 209 207 174 193 183 187 234 221 221 216 214 214 220 228 242 256 273 292 292 291 288 288 287 287 285 286 288 288 290 301 303 286 276 270 256 278
148 221 228 244 187 159 137 258 196 208 178 164 148 192 215 207 203 200 200 213 232 252 270 282 292 300 299 304 302 300 294 291 291 294 296 295 298 285 281 283 276 264 262 259
202 226 254 236 154 142 162 230 236 198 182 167 184 202 217 195 194 197 213 230 247 266 268 279 289 295 292 299 301 302 301 303 298 305 306 305 279 275 267 255 251 242 224 235
160 196 248 160 149 189 181 196 209 188 188 187 197 183 168 178 193 206 219 234 246 257 266 279 284 287 291 293 293 295 297 295 272 281 303 319 276 255 245 221 214 226 232 228
190 208 85 177 30 155 144 141 184 195 201 211 205 183 184 192 202 209 213 226 236 249 264 275 278 287 291 290 289 291 292 280 265 252 253 270 248 239 225 229 234 232 222 209
157 228 300 189 160 152 206 237 250 237 226 223 220 213 210 213 215 216 221 226 230 250 266 276 288 291 288 282 285 291 293 279 266 248 238 228 224 219 212 230 227 216 203 199
116 254 312 261 171 150 148 175 190 207 224 229 227 232 236 232 231 235 237 239 249 259 273 284 290 287 279 278 279 284 279 262 247 234 233 219 210 207 204 201 187 186 194 201
188 159 95 119 136 182 246 246 247 226 218 202 204 213 239 253 250 250 253 257 260 263 273 282 282 276 267 267 270 271 248 234 225 228 228 213 207 206 196 180 182 191 192 190
121 108 299 273 252 248 202 202 236 249 249 251 252 260 270 273 269 265 263 259 258 267 272 272 270 264 260 263 262 254 234 232 233 226 213 204 200 192 188 176 174 173 188 187
267 274 263 248 246 247 248 264 268 262 259 267 277 274 266 263 274 275 260 256 253 261 270 266 256 255 256 265 246 227 229 239 224 211 201 193 185 179 171 172 165 150 141 143
272 277 272 279 272 266 263 259 253 255 262 260 260 262 267 275 279 276 274 256 247 262 266 264 261 254 260 247 225 213 224 225 209 196 187 181 177 169 164 162 157 152 147 143
286 281 276 267 265 264 270 260 252 256 258 266 268 270 268 267 268 270 259 259 261 272 263 248 242 246 252 223 214 209 207 198 192 187 181 175 171 170 168 167 166 165 162 163
309 306 307 287 276 256 267 271 260 266 279 296 302 284 265 265 265 264 250 243 251 246 240 225 238 252 221 206 197 191 188 186 184 176 172 170 170 169 171 173 176 182 190 191
292 289 288 277 259 251 262 277 254 274 306 304 302 301 290 264 255 244 219 235 232 219 213 230 236 202 192 184 174 176 178 175 169 170 168 168 167 168 172 176 180 185 188 185
334 327 321 234 221 238 255 267 259 272 279 277 312 358 326 321 243 219 206 210 200 200 213 218 182 171 173 176 173 171 171 169 169 166 167 168 169 171 175 181 185 186 187 188
11 16 8 284 237 247 257 263 261 261 254 255 178 96 86 74 101 164 170 165 179 193 195 178 168 166 178 182 177 170 172 170 168 168 168 169 172 175 177 179 180 182 183 187
31 23 17 17 14 295 279 274 144 139 129 128 140 135 124 120 128 144 161 176 171 176 169 166 165 171 178 177 173 167 162 162 164 167 170 172 176 177 177 175 173 173 176 181
44 44 46 52 57 62 87 100 106 115 110 117 124 137 141 142 144 162 151 164 170 168 165 165 166 171 174 168 164 162 159 158 164 167 172 176 181 183 183 182 182 183 184 188
58 77 108 93 85 92 103 107 109 117 126 136 158 160 170 165 158 158 161 160 171 169 167 168 171 176 176 165 163 166 166 168 171 174 176 180 184 187 187 187 190 194 198 200
87 98 116 110 120 114 102 95 110 138 176 201 205 191 185 167 162 167 166 167 173 172 170 171 173 174 167 169 169 173 177 178 179 180 181 184 186 187 188 192 197 200 202 200
103 99 89 81 78 76 73 94 104 129 171 203 181 160 159 167 188 181 181 182 177 172 174 176 182 176 172 175 174 176 176 177 182 185 186 186 188 190 191 190 189 191 198 203
95 88 82 69 68 52 42 36 25 176 160 176 171 166 168 175 181 178 195 191 177 174 181 187 185 179 179 182 177 177 172 175 178 180 179 180 180 178 179 184 193 201 206 211
77 87 116 86 47 26 11 8 16 70 137 146 138 145 159 172 184 202 198 195 180 179 186 189 191 189 188 190 190 189 178 177 178 178 181 183 185 189 195 202 209 217 224 225